Location: Unspecified
(43.4354°N, 0.0000°E)
Time: 13:01:25
(UTC+00:00)

Vanguard 1 Rocket - Pass Details

Date: 21 June 2019
Orbit: 651 x 4225 km, 34.3° (Epoch: 20 July)

Event Time Altitude Azimuth Distance (km) Brightness Sun altitude
Rises 21:12:52 0° 269° (W) 5,492 12.0 -12.7°
Reaches altitude 10° 21:17:33 10° 262° (W) 3,891 11.0 -13.2°
Maximum altitude 21:25:25 34° 202° (SSW) 1,699 8.5 -14.1°
Enters shadow 21:28:33 21° 152° (SSE) 1,916 8.4 -14.4°
